Location: Dal�� Lhota
(48.7500°N, 14.0167°E)
Time: 03:03:47
(UTC+00:00)

Transit 2A - Pass Details

Date: 03 August 2021
Orbit: 594 x 964 km, 66.7° (Epoch: 27 September)

Event Time Altitude Azimuth Distance (km) Brightness Sun altitude
Rises 04:05:34 0° 180° (S) 2,829 8.7 2.9°
Reaches altitude 10° 04:08:02 10° 168° (SSE) 1,951 8.0 3.3°
Maximum altitude 04:11:38 26° 111° (ESE) 1,244 7.9 3.8°
Drops below altitude 10° 04:15:28 10° 56° (NE) 2,077 10.3 4.4°
Sets 04:18:10 0° 44° (NE) 3,053 10.5 4.8°
